Weather in Skukuza

South Africa     24°59′59″S   31°35′34″E
temp.,
°C
wind,
m/s
gust,
m/s
humid.,
%
clouds,
%
prec.,
mm/h
press.,
hPa
HPBL,
m
18 may, tue
tue1823:00+17s2691100 0.0 1023284
02:00+18sse278973 0.1 1022403
05:00+17sse279053 0.2 1023368
08:00+18se258497 0.4 1025334
11:00+20se237349 0.2 1025620
14:00+25ene214660 0.2 10221644
17:00+23nne224999 0.0 102262
20:00+18nne11730 0.0 102415
19 may, wed
wed1923:00+16w00835 0.0 102411
02:00+15nw11920 0.0 102411
05:00+14wnw11950 0.0 102416
08:00+17nw24770 0.0 1024265
11:00+25nnw34460 0.0 10211126
14:00+29n33310 0.0 10171735
17:00+25nne37400 0.0 1018191
20:00+19n245873 0.0 102062
20 may, thu
thu2023:00+17nw22665 0.0 102028
02:00+16wnw22705 0.0 101929
05:00+15nw1171100 0.0 101911
08:00+18nnw24585 0.0 1020226
11:00+27nnw34350 0.0 10181046
14:00+30n45251 0.0 10141774
17:00+26nne49325 0.0 1014303
20:00+20nw244768 0.0 101660
21 may, fri
fri2123:00+18nw265157 0.0 1016115
02:00+17nw245082 0.0 101575
05:00+16nw235399 0.0 101556
08:00+21w23400 0.0 1016139
11:00+32sw12170 0.0 1015863
14:00+34e23140 0.0 10132943
17:00+28e49220 0.0 1014238
20:00+19sse5118863 0.0 1021636
22 may, sat
sat2223:00+19sse5982100 0.1 1023866
02:00+19sse4980100 0.2 1023846
05:00+17sse41085100 0.3 1025839
08:00+17sse41080100 0.5 1028752
11:00+20sse576298 0.0 10281048
14:00+21se565484 0.0 10261330
17:00+19se3763100 0.0 1027655
20:00+19sse3763100 0.0 1030747